User: anonymous
Location: Onan Observatory
(44.8103°N, 93.9397°W)
Time: 02:02:38
(UTC-05:00)
Language:

Iridium 90 - Orbit

View from above orbital plane
View from above orbital plane
View from above satellite
View from above satellite

Ground track
Ground track

The orbit data is extracted from the following two-line orbital elements,

1 27373U 02005B   14245.48978415  .00000124  00000-0  31119-4 0  4587
2 27373 086.4442 055.8657 0003723 137.0443 223.1049 14.42955529664457
Epoch (UTC): 02 September 2014 11:45:17
Eccentricity: 0.0003723
inclination: 86.4442°
perigee height: 746 km
apogee height: 751 km
right ascension of ascending node: 55.8657°
argument of perigee: 137.0443°
revolutions per day: 14.42955529
mean anomaly at epoch: 223.1049°
orbit number at epoch: 66445

The dashed part of the orbit path shows where the satellite is in the earth's shadow,  

DLR